Location: Dumpton Point
(51.3500°N, 1.4433°E)
Time: 17:31:27
(UTC+00:00)

A-11 Canister half - All Passes

Search period start: 24 September 2022 00:00
Search period end: 04 October 2022 00:00
Orbit: 1524 x 1684 km, 47.3° (Epoch: 23 September)

Date Brightness Start Highest point End Pass type
(mag) Time Alt. Az. Time Alt. Az. Time Alt. Az.
24 Sep - 01:09:17 10° W 01:15:46 20° SW 01:22:22 10° S visible
24 Sep - 16:30:41 10° SSW 16:38:17 29° SE 16:46:01 10° E daylight
24 Sep - 18:32:46 10° SW 18:41:54 59° SSE 18:51:19 10° E visible
24 Sep - 20:36:59 10° W 20:46:26 70° S 20:56:12 10° ESE visible
24 Sep - 22:41:40 10° W 22:50:49 50° SSW 23:00:13 10° SE visible
25 Sep - 00:47:28 10° W 00:54:10 21° SW 01:00:59 10° S visible
25 Sep - 16:09:14 10° S 16:16:40 28° SE 16:24:15 10° E daylight
25 Sep - 18:11:10 10° SW 18:20:14 58° SSE 18:29:37 10° E visible
25 Sep - 20:15:20 10° W 20:24:44 71° S 20:34:29 10° ESE visible
25 Sep - 22:20:01 10° W 22:29:09 51° SSW 22:38:35 10° SE visible
26 Sep - 00:25:40 10° W 00:32:34 22° SW 00:39:35 10° S visible
26 Sep - 15:47:48 10° S 15:55:05 27° SE 16:02:29 10° E daylight
26 Sep - 17:49:33 10° SW 17:58:35 56° SSE 18:07:55 10° E daylight
26 Sep - 19:53:41 10° W 20:03:04 71° S 20:12:47 10° ESE visible
26 Sep - 21:58:20 10° W 22:07:30 52° SSW 22:16:57 10° SE visible
27 Sep - 00:03:53 10° W 00:10:57 23° SW 00:18:10 10° S visible
27 Sep - 15:26:23 10° S 15:33:29 25° SE 15:40:42 10° E daylight
27 Sep - 17:27:56 10° SW 17:36:56 55° SSE 17:46:12 10° E daylight
27 Sep - 19:32:01 10° W 19:41:23 71° S 19:51:04 10° E visible
27 Sep - 21:36:39 10° W 21:45:50 53° SSW 21:55:18 10° SE visible
27 Sep - 23:42:06 10° W 23:49:20 24° SW 23:56:44 10° S visible
28 Sep - 15:04:58 10° S 15:11:55 24° SE 15:18:55 10° E daylight
28 Sep - 17:06:21 10° SW 17:15:17 54° SSE 17:24:29 10° E daylight
28 Sep - 19:10:21 10° W 19:19:42 71° S 19:29:21 10° E visible
28 Sep - 21:15:00 10° W 21:24:10 55° SSW 21:33:38 10° SE visible
28 Sep - 23:20:21 10° W 23:27:44 26° SW 23:35:17 10° S visible
29 Sep - 14:43:36 10° S 14:50:19 23° SE 14:57:07 10° E daylight
29 Sep - 16:44:45 10° SW 16:53:39 52° SSE 17:02:47 10° E daylight
29 Sep - 18:48:42 10° W 18:58:01 71° S 19:07:39 10° E visible
29 Sep - 20:53:20 10° W 21:02:31 56° SSW 21:11:59 10° SE visible
29 Sep - 22:58:36 10° W 23:06:07 27° SW 23:13:49 10° S visible
30 Sep - 14:22:13 10° S 14:28:44 22° SE 14:35:19 10° E daylight
30 Sep - 16:23:09 10° SW 16:32:00 51° SSE 16:41:04 10° E daylight
30 Sep - 18:27:03 10° WSW 18:36:21 70° S 18:45:57 10° E visible
30 Sep - 20:31:39 10° W 20:40:51 57° SSW 20:50:20 10° SE visible
30 Sep - 22:36:51 10° W 22:44:30 28° SW 22:52:20 10° S visible
01 Oct - 14:00:53 10° S 14:07:10 21° SE 14:13:30 10° E daylight
01 Oct - 16:01:34 10° SW 16:10:22 50° SSE 16:19:22 10° E daylight
01 Oct - 18:05:23 10° WSW 18:14:40 70° S 18:24:14 10° E visible
01 Oct - 20:10:00 10° W 20:19:11 58° SSW 20:28:39 10° SE visible
01 Oct - 22:15:08 10° W 22:22:53 29° SW 22:30:50 10° SSE visible
02 Oct - 13:39:32 10° S 13:45:35 20° SE 13:51:39 10° E daylight
02 Oct - 15:40:00 10° SW 15:48:44 48° SSE 15:57:40 10° E daylight
02 Oct - 17:43:45 10° WSW 17:53:00 70° S 18:02:32 10° E visible
02 Oct - 19:48:19 10° W 19:57:30 59° SSW 20:07:00 10° ESE visible
02 Oct - 21:53:24 10° W 22:01:16 30° SW 22:09:20 10° SSE visible
03 Oct - 13:18:15 10° S 13:24:00 18° SE 13:29:47 10° E daylight
03 Oct - 15:18:25 10° SW 15:27:06 47° SSE 15:35:57 10° E daylight
03 Oct - 17:22:05 10° WSW 17:31:19 70° S 17:40:50 10° E daylight
03 Oct - 19:26:39 10° W 19:35:51 60° SSW 19:45:20 10° ESE visible
03 Oct - 21:31:41 10° W 21:39:39 31° SW 21:47:50 10° SSE visible
